SCP
0 0 0 0 0 0 0 0 0 0 0 0 0 0 0 0 0 0 -0 -0 -0 -0 -0 -0 -0 -1 -0 -0 -0 -0 -0 -0 -0 -0 -0 -0 -0 -0 -0 -0 -0 -0 -0 -0 -0 -0 -0 -0 -0
0 0 0 0 0 0 0 0 0 0 0 0 0 0 0 0 -0 0 0 -0 -0 -0 -0 -0 -0 -0 -1 -0 -0 -0 -0 -0 -0 -0 -0 -0 -0 -0 -0 -0 -0 -0 -0 -0 -0 -0 -0 -0 -0
0 0 0 0 0 0 0 0 0 0 0 0 0 0 0 0 -0 0 0 -0 -0 -0 -0 -0 -0 -0 -0 -0 -0 -0 -0 -0 -0 -0 -0 -0 -0 -0 -0 -0 -0 -0 -0 -0 -0 -0 -0 -0 -0
0 0 0 0 0 0 0 0 0 0 0 0 0 0 0 0 0 -0 0 -0 -0 -0 0 0 -0 -0 -0 -0 -0 -0 -0 -0 -0 -0 -0 -0 -0 -0 -0 -0 -0 -0 -0 -0 -0 -0 -0 0 0
0 0 0 0 0 0 0 0 0 0 0 0 0 0 0 0 0 0 0 0 -0 0 0 0 0 0 -0 -0 -0 -0 -0 -0 -0 -0 -0 -0 -0 -0 -0 -0 -0 0 -0 -0 0 0 0 0 0
0 0 0 0 0 0 0 0 0 0 0 0 0 0 0 0 0 0 0 0 0 0 0 0 0 0 0 0 0 0 0 -0 -0 -0 -0 -0 -0 -0 -0 -0 0 0 0 0 0 0 0 0 0
0 0 0 0 0 0 0 0 0 0 0 0 0 0 0 0 0 0 0 0 0 0 0 0 0 0 0 0 0 0 0 0 0 0 0 0 0 0 0 0 0 0 0 0 0 0 0 0 0
0 0 0 0 0 0 0 0 0 0 0 0 0 0 0 0 0 0 0 0 0 0 0 0 0 0 0 0 0 0 0 0 0 0 0 0 0 0 0 0 0 0 0 0 0 0 0 0 0
0 0 0 0 0 0 0 0 0 0 0 0 0 0 0 0 0 0 0 0 0 0 0 0 0 0 0 0 0 0 0 0 0 0 0 0 0 0 0 0 0 0 0 0 0 0 0 0 0
0 0 0 0 0 0 0 0 0 0 0 0 0 0 0 0 0 0 0 0 0 0 0 0 0 0 0 0 0 0 0 0 0 0 0 0 0 0 0 0 0 0 0 0 0 0 0 0 0
0 0 0 0 0 0 0 0 0 0 0 0 0 0 0 0 0 0 0 0 0 0 0 0 0 0 0 0 0 0 0 0 0 0 0 0 0 0 0 0 0 0 0 0 0 0 0 0 0
0 0 0 0 0 0 0 0 0 0 0 0 0 0 0 0 0 0 0 0 0 0 0 0 0 0 0 0 0 0 0 0 0 0 0 0 0 0 0 0 0 0 0 0 0 0 0 0 0
0 -0 -0 -0 -0 0 0 0 0 0 0 0 0 0 0 0 0 0 0 0 0 0 0 0 0 0 0 0 0 0 0 0 0 0 0 0 0 0 0 0 0 0 0 0 0 0 0 0 0
0 0 0 -0 0 0 -0 -0 0 0 0 0 0 0 0 0 0 0 0 0 0 0 0 0 0 0 0 0 0 0 0 0 0 0 0 0 0 0 0 0 0 0 0 0 0 0 0 0 0
0 0 0 0 0 0 0 0 0 0 0 0 0 0 0 0 0 0 0 0 0 0 0 0 0 0 0 0 0 0 0 0 0 0 0 0 0 0 0 0 0 0 0 0 0 0 0 0 0
0 0 0 0 0 0 0 0 0 0 0 0 0 0 0 0 0 0 0 0 0 0 0 0 0 0 0 0 0 0 0 0 0 0 0 0 0 0 0 0 0 0 0 0 0 0 0 0 0
0 0 0 0 0 0 0 0 0 0 0 0 0 0 0 0 0 0 0 0 0 0 0 0 0 0 0 0 0 0 0 0 0 0 0 0 0 0 0 0 0 0 0 0 0 0 0 0 0
-0 -0 0 0 0 0 0 0 0 0 0 0 0 0 0 0 0 0 0 0 0 0 0 0 0 0 0 0 0 0 0 0 0 0 0 0 0 0 0 0 0 0 0 0 0 0 0 0 0
-0 0 0 0 0 0 -0 -0 0 0 0 0 0 0 0 0 0 0 0 0 0 0 0 0 0 0 0 0 0 0 0 0 0 0 0 0 0 0 0 0 0 0 0 0 0 0 0 0 0
-0 -0 0 -0 0 0 0 0 0 0 0 0 0 0 0 0 0 0 0 0 0 0 0 0 0 0 0 0 0 0 0 0 0 0 0 0 0 0 0 0 0 0 0 0 0 0 0 0 0
0 -0 0 -0 0 0 0 0 0 0 0 0 0 0 0 0 0 0 0 0 -0 0 0 0 0 0 0 0 0 0 0 0 0 0 0 0 0 0 0 0 0 0 0 0 0 0 0 0 0
-0 0 0 -0 0 -0 0 -0 0 0 0 0 0 -0 -0 -0 -0 -0 -0 -0 -0 -0 -0 0 0 0 0 0 0 0 0 0 0 0 0 0 0 0 0 0 0 0 0 0 0 0 0 0 0
0 0 -0 -0 -0 0 0 0 0 0 0 0 0 -0 -0 -0 -0 -0 -0 -0 -0 -0 -0 -0 0 0 0 0 0 0 0 0 0 0 0 0 0 0 0 0 0 0 0 0 0 0 0 0 0
0 0 0 0 0 0 0 0 0 0 0 0 0 0 0 -0 -0 -0 -0 -0 -0 -0 -0 0 0 0 0 0 0 0 0 0 0 0 0 0 0 0 0 0 0 0 0 0 0 0 0 0 0
0 0 -0 0 0 -0 0 0 -0 0 0 0 0 0 0 -0 -0 -0 -0 -0 -0 -0 -0 -0 0 0 0 0 0 0 0 0 0 0 0 0 0 0 0 0 0 0 0 0 0 0 0 0 0
-0 -0 -0 -0 -0 0 -0 -0 0 0 0 0 0 0 0 -0 -0 -0 -0 -0 -0 -0 -0 -0 -0 0 0 0 0 0 0 0 0 0 0 0 0 0 0 0 0 0 0 0 0 0 0 0 0
-0 -0 -0 0 0 0 -0 0 0 0 0 0 0 0 0 -0 -0 -0 -0 -0 -0 -0 -0 -0 -0 -0 0 0 0 0 0 0 0 0 0 0 0 0 -0 0 0 0 0 0 0 0 0 0 0
0 -0 0 0 0 -0 0 0 -0 0 0 0 0 0 0 -0 -0 -0 -0 0 -0 -0 -0 -0 -0 -0 -0 -0 0 0 0 0 0 0 0 0 0 0 0 -0 0 0 0 0 0 0 0 0 0
0 0 0 0 0 0 0 0 0 0 0 0 0 0 0 -0 0 0 0 0 0 0 -0 -0 -0 -0 -0 -0 0 0 0 0 0 0 0 0 0 0 0 0 -0 0 0 0 0 0 0 0 0
0 0 0 0 0 0 0 0 0 0 0 0 0 0 0 0 0 0 0 0 0 0 -0 -0 -0 -0 -0 -0 -0 0 0 0 0 0 0 0 0 0 0 0 0 0 0 0 0 0 0 0 0
Wind_Speed_500mb
9 7 1 4 8 9 7 8 5 12 10 13 15 9 7 15 6 8 26 15 21 32 55 56 50 46 42 38 35 35 31 26 24 21 18 15 13 13 13 14 14 12 13 18 23 28 28 27 26
7 6 5 2 7 2 10 3 13 8 7 16 15 13 13 6 19 27 23 11 32 23 56 56 50 46 42 39 36 35 32 27 22 19 15 12 11 11 12 11 12 12 14 21 22 25 25 24 23
4 6 2 7 6 7 6 3 8 7 20 17 9 14 11 13 21 21 12 26 33 23 53 54 51 46 42 40 37 34 30 26 22 17 12 10 11 11 13 13 14 16 21 23 23 21 21 21 21
5 4 5 7 7 11 8 7 14 13 16 23 8 11 20 34 9 6 21 31 29 25 50 52 50 45 42 39 37 33 28 25 22 17 12 11 11 14 17 19 21 23 24 23 20 19 17 16 15
10 3 3 4 7 4 11 26 39 17 12 39 24 15 18 35 28 13 29 25 23 22 46 50 48 45 41 39 36 32 28 25 22 16 12 10 11 15 18 20 22 24 25 24 23 22 21 18 15
14 5 5 4 2 13 18 44 48 38 42 47 20 20 22 22 25 16 24 19 19 11 28 43 46 43 40 37 36 33 29 27 23 18 14 12 13 15 17 18 18 18 18 19 19 19 19 19 18
7 7 2 7 9 14 17 49 40 24 49 38 24 9 19 37 21 14 22 19 14 12 8 25 38 39 37 37 39 34 31 31 26 20 16 15 15 17 17 17 16 16 16 16 17 18 20 19 16
5 7 9 15 7 7 32 34 40 57 35 59 36 14 11 40 26 17 16 19 15 14 11 13 25 37 38 39 37 35 31 32 28 22 18 15 17 19 19 18 16 15 15 15 16 16 16 13 12
12 6 6 8 13 15 41 27 56 35 47 68 57 46 29 42 40 14 21 13 11 13 11 9 18 38 42 35 35 36 36 33 30 26 22 20 20 22 21 20 17 16 16 16 15 16 14 12 7
9 6 7 12 25 7 28 47 38 35 55 54 73 65 64 42 36 40 9 11 3 14 18 17 26 30 37 36 33 36 34 34 34 30 27 24 23 23 23 23 21 20 18 17 16 16 15 13 7
5 7 14 7 41 36 34 46 37 41 33 50 58 58 64 63 54 32 27 35 28 17 25 25 25 33 39 35 36 36 39 38 37 35 33 29 28 27 30 30 29 26 23 21 19 18 20 16 12
11 15 19 10 23 21 22 17 20 59 38 47 57 56 61 65 64 61 50 41 38 22 9 26 19 35 38 40 41 41 46 46 45 42 37 36 35 34 33 35 32 30 27 25 25 25 24 21 17
7 19 32 31 14 9 20 20 1 27 53 58 53 56 62 62 62 53 47 38 34 30 20 13 26 32 37 47 48 46 46 48 51 48 44 42 41 40 38 35 33 31 32 32 32 32 30 27 24
5 13 17 17 36 35 24 9 15 14 30 49 61 71 69 64 62 55 56 52 47 41 27 20 17 25 36 45 47 51 51 53 54 54 52 44 45 46 46 41 41 37 34 36 36 33 30 29 28
7 29 38 39 15 11 20 34 33 35 40 57 61 62 63 69 67 70 61 59 56 47 38 27 18 19 29 34 41 50 53 55 53 52 54 53 49 48 51 47 47 43 35 36 37 42 42 38 35
12 9 11 19 30 13 17 23 33 42 61 54 58 63 67 72 74 73 70 69 66 59 48 35 28 25 26 35 44 44 52 57 61 56 55 57 56 54 53 51 50 48 44 46 48 47 40 38 37
16 7 11 7 39 13 14 18 32 45 55 52 53 55 55 65 79 77 76 76 73 69 66 53 37 32 28 34 35 43 44 53 61 62 63 62 61 59 60 58 52 55 55 54 54 51 47 44 42
8 8 9 10 16 13 33 26 31 43 50 44 47 51 57 62 69 77 79 79 76 72 69 66 61 49 36 30 37 35 45 39 51 63 67 67 72 66 70 66 61 56 62 63 61 58 57 53 46
15 15 9 7 12 12 23 27 23 33 43 43 46 49 52 56 60 75 78 79 81 80 75 76 71 69 61 44 40 43 47 35 44 54 63 68 73 78 74 76 74 69 70 70 66 62 62 59 55
19 9 11 10 11 4 25 26 22 29 36 39 40 44 48 55 69 75 79 82 83 82 82 81 79 74 69 64 56 51 48 51 45 43 61 60 67 75 82 83 85 80 79 79 75 69 71 67 66
8 14 7 9 14 8 24 16 20 20 33 35 41 43 49 53 65 72 76 76 80 84 85 78 77 76 75 66 63 57 44 41 47 36 37 69 67 69 74 86 89 86 88 87 83 80 78 78 73
7 9 8 12 5 4 4 2 8 13 19 29 34 44 47 52 58 63 71 73 74 76 76 76 75 72 73 75 71 66 64 60 52 55 52 56 68 67 71 75 89 95 93 94 94 85 85 83 84
11 30 13 7 5 7 12 8 3 5 11 11 25 37 45 51 54 60 64 67 70 72 72 75 75 75 72 71 73 73 67 61 57 53 57 51 58 66 69 75 84 91 100 96 95 99 94 94 93
28 11 12 8 7 5 8 8 6 2 4 3 15 38 45 49 49 53 56 61 67 70 72 75 76 79 79 77 74 73 77 69 64 59 54 51 49 60 68 74 83 84 100 102 109 96 105 101 101
27 13 8 11 9 8 4 7 9 10 7 6 26 39 44 47 48 52 55 58 65 67 71 77 79 79 81 82 80 77 77 76 70 63 64 60 50 54 55 73 78 84 69 105 99 106 109 102 105
10 8 8 7 4 9 20 7 6 12 11 19 24 26 29 35 37 47 49 51 58 62 71 75 78 80 79 79 82 81 79 79 77 70 62 59 58 57 61 52 58 77 78 94 91 109 104 109 104
12 10 5 9 2 7 7 1 7 9 5 11 19 21 24 28 32 42 43 47 55 66 72 76 77 76 76 76 78 80 81 82 83 78 69 62 57 58 61 66 50 59 53 69 91 91 105 107 112
9 2 7 7 5 9 10 9 8 9 8 8 11 15 22 29 34 44 44 46 54 63 70 77 73 71 71 73 74 77 78 80 82 82 81 71 63 56 55 61 70 60 56 51 61 70 72 90 96
8 4 6 7 7 8 5 11 10 14 11 5 10 20 34 40 43 40 42 46 56 62 70 77 67 69 68 73 74 76 77 77 79 81 83 83 71 64 54 55 57 69 55 54 60 72 70 78 81
5 6 7 8 11 4 4 12 9 17 16 5 18 38 53 64 42 32 38 57 54 59 69 67 69 72 71 74 76 76 75 77 78 80 82 81 83 70 61 57 59 59 63 59 58 66 71 76 83
Wind_Direction_500mb
268 264 171 73 46 67 257 260 126 33 26 352 347 2 95 31 21 133 131 199 190 174 179 174 171 168 166 162 160 159 158 153 151 147 143 143 140 139 148 152 158 163 149 149 146 149 143 137 134
271 146 79 40 86 68 282 110 86 100 95 25 356 4 84 85 67 128 149 202 193 184 178 176 175 173 170 167 166 164 160 157 156 151 145 138 131 135 145 151 155 160 154 139 145 143 147 149 146
272 165 86 113 144 194 118 34 69 57 72 55 22 14 41 6 70 138 188 211 194 187 180 178 178 178 174 171 170 169 165 163 158 153 141 125 121 125 126 118 118 118 123 127 134 141 146 150 154
67 127 262 99 227 281 39 353 58 39 44 14 46 50 80 27 23 35 185 198 198 186 184 180 180 179 176 176 173 173 172 168 163 157 146 129 121 119 116 113 112 114 119 125 131 138 142 145 149
26 309 52 147 262 61 17 38 56 51 62 26 30 7 66 29 22 91 159 200 208 185 183 182 181 182 181 180 180 179 179 176 172 166 157 140 131 132 129 126 123 120 119 119 119 119 118 121 129
7 304 63 207 239 14 20 27 53 48 37 23 26 69 48 28 54 69 137 207 214 212 181 186 183 183 185 185 186 186 186 185 181 178 171 157 149 147 144 138 133 131 130 129 128 124 121 117 113
48 343 314 8 36 23 357 19 38 33 24 5 19 56 54 22 29 85 138 190 227 226 203 189 189 187 189 190 191 193 193 190 189 188 185 171 164 164 159 153 149 147 142 136 130 127 123 118 113
39 26 9 35 34 39 6 23 29 31 48 39 38 29 359 7 9 119 113 184 198 231 233 244 214 198 195 194 198 200 198 195 193 194 195 184 178 178 173 172 171 169 162 157 150 143 133 122 103
95 46 77 19 3 331 9 20 18 37 45 39 43 38 23 4 18 140 128 154 177 179 200 237 260 217 204 204 203 203 208 198 199 199 199 197 195 192 190 191 191 189 182 176 170 166 165 157 131
76 100 113 45 40 359 15 14 11 32 38 24 35 37 43 51 33 41 142 91 47 274 251 274 261 238 223 214 212 207 209 206 206 208 210 208 208 206 206 208 209 206 201 197 195 195 198 201 205
102 96 162 20 23 21 33 23 10 31 32 27 34 40 44 53 56 49 38 35 32 6 270 288 252 223 229 227 226 227 220 220 221 218 217 217 216 215 216 220 218 217 214 215 213 215 223 231 243
95 110 115 20 33 33 51 34 22 45 28 30 42 42 39 38 35 35 34 22 22 8 340 253 272 239 232 231 232 240 233 228 229 230 223 224 226 222 224 227 229 228 225 224 225 225 232 233 242
63 154 136 143 119 117 125 114 299 25 38 53 42 36 32 30 27 25 25 25 13 17 4 324 238 241 248 233 234 233 239 241 240 239 234 228 228 231 235 236 233 234 235 230 230 237 231 228 237
24 112 77 175 108 52 125 97 140 330 31 47 45 42 37 29 18 18 19 13 8 4 10 348 302 252 240 248 247 242 238 243 239 239 239 245 235 235 238 238 236 235 232 233 230 240 240 236 243
68 83 58 25 52 83 98 45 42 61 61 49 47 44 35 33 29 30 25 22 16 7 355 350 326 288 256 249 253 252 246 242 240 240 240 236 237 239 239 241 237 232 232 226 224 229 236 240 245
21 46 75 29 15 332 64 64 46 53 62 52 44 41 39 36 33 32 31 29 26 21 11 348 338 314 289 258 257 255 258 248 248 242 244 238 241 239 241 241 238 234 221 224 224 235 243 245 251
11 51 68 16 17 354 60 98 54 52 56 49 43 42 39 34 36 30 30 27 25 25 22 17 352 334 304 287 278 260 257 259 254 251 243 241 240 242 243 241 242 235 224 224 225 235 245 246 246
7 33 35 38 349 21 91 90 62 56 58 51 44 39 37 32 28 27 28 26 26 23 22 21 20 8 338 309 292 288 262 258 267 258 250 248 243 241 241 242 240 238 228 226 227 234 240 239 247
71 64 4 337 13 11 100 91 76 65 61 52 44 38 34 29 24 27 26 23 22 23 21 18 15 12 7 349 307 297 279 282 261 267 259 254 247 244 242 242 240 239 235 233 235 238 233 233 237
73 74 353 296 316 4 115 91 84 70 65 56 46 39 31 24 21 20 20 19 19 18 18 18 17 14 9 3 359 344 314 285 287 282 269 263 256 250 245 244 244 240 241 238 238 242 234 231 235
65 81 348 274 326 52 120 115 96 82 73 61 49 41 34 27 19 16 15 15 15 14 14 13 13 11 11 4 354 349 334 297 283 286 288 272 266 252 252 246 245 246 241 245 240 242 239 234 238
317 56 319 281 46 165 61 194 131 98 68 49 39 35 28 21 19 16 11 8 10 10 10 10 10 8 7 7 2 358 353 344 325 302 294 281 269 262 261 254 249 246 244 244 246 246 246 239 236
269 309 271 210 161 63 332 69 234 98 56 25 32 31 26 19 14 13 10 7 5 5 7 8 7 7 6 5 5 2 352 346 337 319 289 291 276 269 272 267 256 249 247 248 248 243 248 241 240
326 346 39 57 85 40 268 106 256 197 143 356 36 33 23 14 10 8 5 2 4 4 5 5 4 4 4 4 3 1 359 347 341 338 315 289 296 277 274 268 271 260 258 244 249 259 246 245 240
1 34 2 6 10 217 71 39 250 167 133 37 35 26 14 9 9 6 3 358 359 6 7 5 2 1 360 359 0 0 358 356 346 339 337 319 292 295 281 281 277 271 256 250 251 261 238 247 240
328 80 127 205 310 292 342 262 264 171 164 58 49 31 17 14 9 358 357 353 351 351 356 357 356 355 355 355 354 356 356 355 352 342 332 331 319 297 283 287 296 275 268 256 258 252 248 243 237
319 38 139 100 127 31 261 299 325 176 84 32 30 9 5 2 358 350 346 348 343 342 345 349 349 348 348 349 350 350 351 353 350 347 338 327 323 310 285 281 281 290 285 270 263 259 254 253 244
79 284 48 9 43 307 292 289 242 191 259 356 340 336 349 349 343 342 336 334 336 333 333 339 341 343 343 344 346 346 347 347 347 346 345 335 322 320 303 282 277 278 285 280 276 269 271 259 249
356 26 41 118 135 181 293 269 218 194 212 207 352 350 341 331 326 333 336 333 331 325 329 334 340 341 341 341 340 341 341 342 342 344 343 342 330 319 317 298 279 270 275 276 277 273 266 256 248
93 169 109 115 286 243 182 272 217 234 194 138 342 335 335 331 318 322 323 329 328 325 329 336 336 336 337 337 336 336 337 337 339 339 341 339 338 324 314 311 289 275 266 273 270 271 266 258 246
Wind_Speed_850mb
9 7 1 4 8 9 7 8 5 12 10 13 15 9 7 15 6 8 26 15 21 32 55 56 50 46 42 38 35 35 31 26 24 21 18 15 13 13 13 14 14 12 13 18 23 28 28 27 26
7 6 5 2 7 2 10 3 13 8 7 16 15 13 13 6 19 27 23 11 32 23 56 56 50 46 42 39 36 35 32 27 22 19 15 12 11 11 12 11 12 12 14 21 22 25 25 24 23
4 6 2 7 6 7 6 3 8 7 20 17 9 14 11 13 21 21 12 26 33 23 53 54 51 46 42 40 37 34 30 26 22 17 12 10 11 11 13 13 14 16 21 23 23 21 21 21 21
5 4 5 7 7 11 8 7 14 13 16 23 8 11 20 34 9 6 21 31 29 25 50 52 50 45 42 39 37 33 28 25 22 17 12 11 11 14 17 19 21 23 24 23 20 19 17 16 15
10 3 3 4 7 4 11 26 39 17 12 39 24 15 18 35 28 13 29 25 23 22 46 50 48 45 41 39 36 32 28 25 22 16 12 10 11 15 18 20 22 24 25 24 23 22 21 18 15
14 5 5 4 2 13 18 44 48 38 42 47 20 20 22 22 25 16 24 19 19 11 28 43 46 43 40 37 36 33 29 27 23 18 14 12 13 15 17 18 18 18 18 19 19 19 19 19 18
7 7 2 7 9 14 17 49 40 24 49 38 24 9 19 37 21 14 22 19 14 12 8 25 38 39 37 37 39 34 31 31 26 20 16 15 15 17 17 17 16 16 16 16 17 18 20 19 16
5 7 9 15 7 7 32 34 40 57 35 59 36 14 11 40 26 17 16 19 15 14 11 13 25 37 38 39 37 35 31 32 28 22 18 15 17 19 19 18 16 15 15 15 16 16 16 13 12
12 6 6 8 13 15 41 27 56 35 47 68 57 46 29 42 40 14 21 13 11 13 11 9 18 38 42 35 35 36 36 33 30 26 22 20 20 22 21 20 17 16 16 16 15 16 14 12 7
9 6 7 12 25 7 28 47 38 35 55 54 73 65 64 42 36 40 9 11 3 14 18 17 26 30 37 36 33 36 34 34 34 30 27 24 23 23 23 23 21 20 18 17 16 16 15 13 7
5 7 14 7 41 36 34 46 37 41 33 50 58 58 64 63 54 32 27 35 28 17 25 25 25 33 39 35 36 36 39 38 37 35 33 29 28 27 30 30 29 26 23 21 19 18 20 16 12
11 15 19 10 23 21 22 17 20 59 38 47 57 56 61 65 64 61 50 41 38 22 9 26 19 35 38 40 41 41 46 46 45 42 37 36 35 34 33 35 32 30 27 25 25 25 24 21 17
7 19 32 31 14 9 20 20 1 27 53 58 53 56 62 62 62 53 47 38 34 30 20 13 26 32 37 47 48 46 46 48 51 48 44 42 41 40 38 35 33 31 32 32 32 32 30 27 24
5 13 17 17 36 35 24 9 15 14 30 49 61 71 69 64 62 55 56 52 47 41 27 20 17 25 36 45 47 51 51 53 54 54 52 44 45 46 46 41 41 37 34 36 36 33 30 29 28
7 29 38 39 15 11 20 34 33 35 40 57 61 62 63 69 67 70 61 59 56 47 38 27 18 19 29 34 41 50 53 55 53 52 54 53 49 48 51 47 47 43 35 36 37 42 42 38 35
12 9 11 19 30 13 17 23 33 42 61 54 58 63 67 72 74 73 70 69 66 59 48 35 28 25 26 35 44 44 52 57 61 56 55 57 56 54 53 51 50 48 44 46 48 47 40 38 37
16 7 11 7 39 13 14 18 32 45 55 52 53 55 55 65 79 77 76 76 73 69 66 53 37 32 28 34 35 43 44 53 61 62 63 62 61 59 60 58 52 55 55 54 54 51 47 44 42
8 8 9 10 16 13 33 26 31 43 50 44 47 51 57 62 69 77 79 79 76 72 69 66 61 49 36 30 37 35 45 39 51 63 67 67 72 66 70 66 61 56 62 63 61 58 57 53 46
15 15 9 7 12 12 23 27 23 33 43 43 46 49 52 56 60 75 78 79 81 80 75 76 71 69 61 44 40 43 47 35 44 54 63 68 73 78 74 76 74 69 70 70 66 62 62 59 55
19 9 11 10 11 4 25 26 22 29 36 39 40 44 48 55 69 75 79 82 83 82 82 81 79 74 69 64 56 51 48 51 45 43 61 60 67 75 82 83 85 80 79 79 75 69 71 67 66
8 14 7 9 14 8 24 16 20 20 33 35 41 43 49 53 65 72 76 76 80 84 85 78 77 76 75 66 63 57 44 41 47 36 37 69 67 69 74 86 89 86 88 87 83 80 78 78 73
7 9 8 12 5 4 4 2 8 13 19 29 34 44 47 52 58 63 71 73 74 76 76 76 75 72 73 75 71 66 64 60 52 55 52 56 68 67 71 75 89 95 93 94 94 85 85 83 84
11 30 13 7 5 7 12 8 3 5 11 11 25 37 45 51 54 60 64 67 70 72 72 75 75 75 72 71 73 73 67 61 57 53 57 51 58 66 69 75 84 91 100 96 95 99 94 94 93
28 11 12 8 7 5 8 8 6 2 4 3 15 38 45 49 49 53 56 61 67 70 72 75 76 79 79 77 74 73 77 69 64 59 54 51 49 60 68 74 83 84 100 102 109 96 105 101 101
27 13 8 11 9 8 4 7 9 10 7 6 26 39 44 47 48 52 55 58 65 67 71 77 79 79 81 82 80 77 77 76 70 63 64 60 50 54 55 73 78 84 69 105 99 106 109 102 105
10 8 8 7 4 9 20 7 6 12 11 19 24 26 29 35 37 47 49 51 58 62 71 75 78 80 79 79 82 81 79 79 77 70 62 59 58 57 61 52 58 77 78 94 91 109 104 109 104
12 10 5 9 2 7 7 1 7 9 5 11 19 21 24 28 32 42 43 47 55 66 72 76 77 76 76 76 78 80 81 82 83 78 69 62 57 58 61 66 50 59 53 69 91 91 105 107 112
9 2 7 7 5 9 10 9 8 9 8 8 11 15 22 29 34 44 44 46 54 63 70 77 73 71 71 73 74 77 78 80 82 82 81 71 63 56 55 61 70 60 56 51 61 70 72 90 96
8 4 6 7 7 8 5 11 10 14 11 5 10 20 34 40 43 40 42 46 56 62 70 77 67 69 68 73 74 76 77 77 79 81 83 83 71 64 54 55 57 69 55 54 60 72 70 78 81
5 6 7 8 11 4 4 12 9 17 16 5 18 38 53 64 42 32 38 57 54 59 69 67 69 72 71 74 76 76 75 77 78 80 82 81 83 70 61 57 59 59 63 59 58 66 71 76 83
Wind_Direction_850mb
268 264 171 73 46 67 257 260 126 33 26 352 347 2 95 31 21 133 131 199 190 174 179 174 171 168 166 162 160 159 158 153 151 147 143 143 140 139 148 152 158 163 149 149 146 149 143 137 134
271 146 79 40 86 68 282 110 86 100 95 25 356 4 84 85 67 128 149 202 193 184 178 176 175 173 170 167 166 164 160 157 156 151 145 138 131 135 145 151 155 160 154 139 145 143 147 149 146
272 165 86 113 144 194 118 34 69 57 72 55 22 14 41 6 70 138 188 211 194 187 180 178 178 178 174 171 170 169 165 163 158 153 141 125 121 125 126 118 118 118 123 127 134 141 146 150 154
67 127 262 99 227 281 39 353 58 39 44 14 46 50 80 27 23 35 185 198 198 186 184 180 180 179 176 176 173 173 172 168 163 157 146 129 121 119 116 113 112 114 119 125 131 138 142 145 149
26 309 52 147 262 61 17 38 56 51 62 26 30 7 66 29 22 91 159 200 208 185 183 182 181 182 181 180 180 179 179 176 172 166 157 140 131 132 129 126 123 120 119 119 119 119 118 121 129
7 304 63 207 239 14 20 27 53 48 37 23 26 69 48 28 54 69 137 207 214 212 181 186 183 183 185 185 186 186 186 185 181 178 171 157 149 147 144 138 133 131 130 129 128 124 121 117 113
48 343 314 8 36 23 357 19 38 33 24 5 19 56 54 22 29 85 138 190 227 226 203 189 189 187 189 190 191 193 193 190 189 188 185 171 164 164 159 153 149 147 142 136 130 127 123 118 113
39 26 9 35 34 39 6 23 29 31 48 39 38 29 359 7 9 119 113 184 198 231 233 244 214 198 195 194 198 200 198 195 193 194 195 184 178 178 173 172 171 169 162 157 150 143 133 122 103
95 46 77 19 3 331 9 20 18 37 45 39 43 38 23 4 18 140 128 154 177 179 200 237 260 217 204 204 203 203 208 198 199 199 199 197 195 192 190 191 191 189 182 176 170 166 165 157 131
76 100 113 45 40 359 15 14 11 32 38 24 35 37 43 51 33 41 142 91 47 274 251 274 261 238 223 214 212 207 209 206 206 208 210 208 208 206 206 208 209 206 201 197 195 195 198 201 205
102 96 162 20 23 21 33 23 10 31 32 27 34 40 44 53 56 49 38 35 32 6 270 288 252 223 229 227 226 227 220 220 221 218 217 217 216 215 216 220 218 217 214 215 213 215 223 231 243
95 110 115 20 33 33 51 34 22 45 28 30 42 42 39 38 35 35 34 22 22 8 340 253 272 239 232 231 232 240 233 228 229 230 223 224 226 222 224 227 229 228 225 224 225 225 232 233 242
63 154 136 143 119 117 125 114 299 25 38 53 42 36 32 30 27 25 25 25 13 17 4 324 238 241 248 233 234 233 239 241 240 239 234 228 228 231 235 236 233 234 235 230 230 237 231 228 237
24 112 77 175 108 52 125 97 140 330 31 47 45 42 37 29 18 18 19 13 8 4 10 348 302 252 240 248 247 242 238 243 239 239 239 245 235 235 238 238 236 235 232 233 230 240 240 236 243
68 83 58 25 52 83 98 45 42 61 61 49 47 44 35 33 29 30 25 22 16 7 355 350 326 288 256 249 253 252 246 242 240 240 240 236 237 239 239 241 237 232 232 226 224 229 236 240 245
21 46 75 29 15 332 64 64 46 53 62 52 44 41 39 36 33 32 31 29 26 21 11 348 338 314 289 258 257 255 258 248 248 242 244 238 241 239 241 241 238 234 221 224 224 235 243 245 251
11 51 68 16 17 354 60 98 54 52 56 49 43 42 39 34 36 30 30 27 25 25 22 17 352 334 304 287 278 260 257 259 254 251 243 241 240 242 243 241 242 235 224 224 225 235 245 246 246
7 33 35 38 349 21 91 90 62 56 58 51 44 39 37 32 28 27 28 26 26 23 22 21 20 8 338 309 292 288 262 258 267 258 250 248 243 241 241 242 240 238 228 226 227 234 240 239 247
71 64 4 337 13 11 100 91 76 65 61 52 44 38 34 29 24 27 26 23 22 23 21 18 15 12 7 349 307 297 279 282 261 267 259 254 247 244 242 242 240 239 235 233 235 238 233 233 237
73 74 353 296 316 4 115 91 84 70 65 56 46 39 31 24 21 20 20 19 19 18 18 18 17 14 9 3 359 344 314 285 287 282 269 263 256 250 245 244 244 240 241 238 238 242 234 231 235
65 81 348 274 326 52 120 115 96 82 73 61 49 41 34 27 19 16 15 15 15 14 14 13 13 11 11 4 354 349 334 297 283 286 288 272 266 252 252 246 245 246 241 245 240 242 239 234 238
317 56 319 281 46 165 61 194 131 98 68 49 39 35 28 21 19 16 11 8 10 10 10 10 10 8 7 7 2 358 353 344 325 302 294 281 269 262 261 254 249 246 244 244 246 246 246 239 236
269 309 271 210 161 63 332 69 234 98 56 25 32 31 26 19 14 13 10 7 5 5 7 8 7 7 6 5 5 2 352 346 337 319 289 291 276 269 272 267 256 249 247 248 248 243 248 241 240
326 346 39 57 85 40 268 106 256 197 143 356 36 33 23 14 10 8 5 2 4 4 5 5 4 4 4 4 3 1 359 347 341 338 315 289 296 277 274 268 271 260 258 244 249 259 246 245 240
1 34 2 6 10 217 71 39 250 167 133 37 35 26 14 9 9 6 3 358 359 6 7 5 2 1 360 359 0 0 358 356 346 339 337 319 292 295 281 281 277 271 256 250 251 261 238 247 240
328 80 127 205 310 292 342 262 264 171 164 58 49 31 17 14 9 358 357 353 351 351 356 357 356 355 355 355 354 356 356 355 352 342 332 331 319 297 283 287 296 275 268 256 258 252 248 243 237
319 38 139 100 127 31 261 299 325 176 84 32 30 9 5 2 358 350 346 348 343 342 345 349 349 348 348 349 350 350 351 353 350 347 338 327 323 310 285 281 281 290 285 270 263 259 254 253 244
79 284 48 9 43 307 292 289 242 191 259 356 340 336 349 349 343 342 336 334 336 333 333 339 341 343 343 344 346 346 347 347 347 346 345 335 322 320 303 282 277 278 285 280 276 269 271 259 249
356 26 41 118 135 181 293 269 218 194 212 207 352 350 341 331 326 333 336 333 331 325 329 334 340 341 341 341 340 341 341 342 342 344 343 342 330 319 317 298 279 270 275 276 277 273 266 256 248
93 169 109 115 286 243 182 272 217 234 194 138 342 335 335 331 318 322 323 329 328 325 329 336 336 336 337 337 336 336 337 337 339 339 341 339 338 324 314 311 289 275 266 273 270 271 266 258 246